User: anonymous   Login
Location: Freistadt
(48.5112°N, 14.5013°E)
Time: 06:00:23
(UTC+01:00)
Language:

FENGYUN 1C DEB - Orbit

View from above orbital plane
View from above orbital plane
View from above satellite
View from above satellite

Ground track
Ground track

The orbit data is extracted from the following two-line orbital elements,

1 29873U 99025FT  23340.50543154  .00000116  00000-0  11323-3 0  9994
2 29873  99.4999 166.0430 0094308  36.8576  18.3675 13.96869991860172
Epoch (UTC): 06 December 2023 12:07:49
Eccentricity: 0.0094308
inclination: 99.4999°
perigee height: 836 km
apogee height: 973 km
right ascension of ascending node: 166.0430°
argument of perigee: 36.8576°
revolutions per day: 13.96869991
mean anomaly at epoch: 18.3675°
orbit number at epoch: 86017

The dashed part of the orbit path shows where the satellite is in the earth's shadow,  

DLR